User: anonymous   Login
Location: Caltech
(34.1382°N, 118.1253°W)
Time: 07:40:10
(UTC-08:00)
Language:

Gbstr 26 Del rocket - Orbit

View from above orbital plane
View from above orbital plane
View from above satellite
View from above satellite

Ground track
Ground track

The orbit data is extracted from the following two-line orbital elements,

1 25876U 99041E   16337.51618782 -.00000025  00000-0  36437-4 0  9994
2 25876  51.7660  12.7131 0532507 174.8640 185.8063 14.03960994886987
Epoch (UTC): 02 December 2016 12:23:18
Eccentricity: 0.0532507
inclination: 51.7660°
perigee height: 493 km
apogee height: 1266 km
right ascension of ascending node: 12.7131°
argument of perigee: 174.8640°
revolutions per day: 14.03960994
mean anomaly at epoch: 185.8063°
orbit number at epoch: 88698

The dashed part of the orbit path shows where the satellite is in the earth's shadow,  

DLR